Time,TemperatureF,DewpointF,PressureIn,WindDirection,WindDirectionDegrees,WindSpeedMPH,WindSpeedGustMPH,Humidity,HourlyPrecipIn,Conditions,Clouds,dailyrainin,SoftwareType,DateUTC
2013-01-07 00:10:00,45.0,43.0,30.16,NW,313,2.0,-999.0,91,-99.99,,,0.00,weatherlink.com 1.10,2013-01-07 08:10:00,
2013-01-07 00:25:00,45.1,42.0,30.15,NW,322,5.0,-999.0,90,-99.99,,,0.00,weatherlink.com 1.10,2013-01-07 08:25:00,
2013-01-07 00:40:00,45.0,42.0,30.16,NW,317,4.0,-999.0,90,-99.99,,,0.00,weatherlink.com 1.10,2013-01-07 08:40:00,
2013-01-07 00:55:00,44.7,42.0,30.16,NW,315,5.0,-999.0,90,-99.99,,,0.00,weatherlink.com 1.10,2013-01-07 08:55:00,
2013-01-07 01:10:00,44.7,42.0,30.16,NNW,336,5.0,-999.0,90,-99.99,,,0.00,weatherlink.com 1.10,2013-01-07 09:10:00,
2013-01-07 01:25:00,44.7,42.0,30.16,NW,318,2.0,-999.0,90,-99.99,,,0.00,weatherlink.com 1.10,2013-01-07 09:25:00,
2013-01-07 01:40:00,44.8,42.0,30.17,NW,311,4.0,-999.0,90,-99.99,,,0.00,weatherlink.com 1.10,2013-01-07 09:40:00,
2013-01-07 01:55:00,45.1,42.0,30.18,WNW,302,7.0,-999.0,89,-99.99,,,0.00,weatherlink.com 1.10,2013-01-07 09:55:00,
2013-01-07 02:10:00,45.7,42.0,30.20,NW,317,7.0,-999.0,88,-99.99,,,0.00,weatherlink.com 1.10,2013-01-07 10:10:00,
2013-01-07 02:25:00,46.1,43.0,30.20,NW,309,3.0,-999.0,87,-99.99,,,0.00,weatherlink.com 1.10,2013-01-07 10:25:00,
2013-01-07 02:40:00,46.1,43.0,30.20,NNW,344,5.0,-999.0,88,-99.99,,,0.00,weatherlink.com 1.10,2013-01-07 10:40:00,
2013-01-07 02:55:00,46.1,43.0,30.20,NW,309,6.0,-999.0,88,-99.99,,,0.00,weatherlink.com 1.10,2013-01-07 10:55:00,
2013-01-07 03:10:00,45.9,42.0,30.20,NNW,329,7.0,-999.0,86,-99.99,,,0.00,weatherlink.com 1.10,2013-01-07 11:10:00,
2013-01-07 03:25:00,45.7,42.0,30.21,WNW,292,5.0,-999.0,87,-99.99,,,0.00,weatherlink.com 1.10,2013-01-07 11:25:00,
2013-01-07 03:40:00,46.2,43.0,30.20,WNW,297,3.0,-999.0,87,-99.99,,,0.00,weatherlink.com 1.10,2013-01-07 11:40:00,
2013-01-07 03:55:00,46.7,43.0,30.19,WSW,249,10.0,-999.0,88,-99.99,,,0.00,weatherlink.com 1.10,2013-01-07 11:55:00,
2013-01-07 04:10:00,46.2,42.0,30.17,NNW,329,3.0,-999.0,86,-99.99,,,0.00,weatherlink.com 1.10,2013-01-07 12:10:00,
2013-01-07 04:25:00,45.4,42.0,30.17,WNW,298,5.0,-999.0,86,-99.99,,,0.00,weatherlink.com 1.10,2013-01-07 12:25:00,
2013-01-07 04:40:00,45.1,41.0,30.18,WNW,291,2.0,-999.0,85,-99.99,,,0.00,weatherlink.com 1.10,2013-01-07 12:40:00,
2013-01-07 04:55:00,44.7,40.0,30.18,WNW,284,2.0,-999.0,84,-99.99,,,0.00,weatherlink.com 1.10,2013-01-07 12:55:00,
2013-01-07 05:10:00,43.9,39.0,30.18,WNW,294,3.0,-999.0,84,-99.99,,,0.00,weatherlink.com 1.10,2013-01-07 13:10:00,
2013-01-07 05:25:00,43.9,40.0,30.18,WNW,296,3.0,-999.0,85,-99.99,,,0.00,weatherlink.com 1.10,2013-01-07 13:25:00,
2013-01-07 05:40:00,44.3,40.0,30.18,WNW,302,5.0,-999.0,84,-99.99,,,0.00,weatherlink.com 1.10,2013-01-07 13:40:00,
2013-01-07 05:55:00,45.3,40.0,30.19,NW,307,6.0,-999.0,82,-99.99,,,0.00,weatherlink.com 1.10,2013-01-07 13:55:00,
2013-01-07 06:10:00,45.9,40.0,30.20,West,273,7.0,-999.0,81,-99.99,,,0.00,weatherlink.com 1.10,2013-01-07 14:10:00,
2013-01-07 06:25:00,46.4,41.0,30.19,NW,325,2.0,-999.0,82,-99.99,,,0.00,weatherlink.com 1.10,2013-01-07 14:25:00,
2013-01-07 06:40:00,46.3,41.0,30.17,NNW,340,1.0,-999.0,81,-99.99,,,0.00,weatherlink.com 1.10,2013-01-07 14:40:00,
2013-01-07 06:55:00,45.6,40.0,30.16,NW,313,2.0,-999.0,81,-99.99,,,0.00,weatherlink.com 1.10,2013-01-07 14:55:00,
2013-01-07 07:10:00,46.4,41.0,30.18,West,279,4.0,-999.0,80,-99.99,,,0.00,weatherlink.com 1.10,2013-01-07 15:10:00,
2013-01-07 07:25:00,46.9,41.0,30.19,NW,310,5.0,-999.0,81,-99.99,,,0.00,weatherlink.com 1.10,2013-01-07 15:25:00,
2013-01-07 07:40:00,46.7,42.0,30.18,NW,323,5.0,-999.0,82,-99.99,,,0.00,weatherlink.com 1.10,2013-01-07 15:40:00,
2013-01-07 07:55:00,46.1,41.0,30.18,NW,322,2.0,-999.0,83,-99.99,,,0.00,weatherlink.com 1.10,2013-01-07 15:55:00,
2013-01-07 08:10:00,47.2,43.0,30.20,West,262,5.0,-999.0,84,-99.99,,,0.00,weatherlink.com 1.10,2013-01-07 16:10:00,
2013-01-07 08:25:00,47.7,43.0,30.21,WNW,300,1.0,-999.0,84,-99.99,,,0.00,weatherlink.com 1.10,2013-01-07 16:25:00,
2013-01-07 08:40:00,48.0,43.0,30.22,WNW,298,1.0,-999.0,84,-99.99,,,0.00,weatherlink.com 1.10,2013-01-07 16:40:00,
2013-01-07 08:55:00,48.4,44.0,30.22,NW,323,5.0,-999.0,84,-99.99,,,0.00,weatherlink.com 1.10,2013-01-07 16:55:00,
2013-01-07 09:10:00,49.3,45.0,30.23,NW,306,4.0,-999.0,84,-99.99,,,0.00,weatherlink.com 1.10,2013-01-07 17:10:00,
2013-01-07 09:25:00,50.2,46.0,30.23,NW,311,5.0,-999.0,84,-99.99,,,0.00,weatherlink.com 1.10,2013-01-07 17:25:00,
2013-01-07 09:40:00,50.9,46.0,30.24,West,271,4.0,-999.0,84,-99.99,,,0.00,weatherlink.com 1.10,2013-01-07 17:40:00,
2013-01-07 09:55:00,51.4,46.0,30.24,West,270,6.0,-999.0,83,-99.99,,,0.00,weatherlink.com 1.10,2013-01-07 17:55:00,
2013-01-07 10:10:00,51.7,47.0,30.24,NW,320,4.0,-999.0,83,-99.99,,,0.00,weatherlink.com 1.10,2013-01-07 18:10:00,
2013-01-07 10:25:00,52.4,48.0,30.24,West,269,6.0,-999.0,84,-99.99,,,0.00,weatherlink.com 1.10,2013-01-07 18:25:00,
2013-01-07 10:40:00,53.7,49.0,30.23,West,276,5.0,-999.0,85,-99.99,,,0.00,weatherlink.com 1.10,2013-01-07 18:40:00,
2013-01-07 10:55:00,53.5,49.0,30.25,WSW,246,11.0,-999.0,85,-99.99,,,0.00,weatherlink.com 1.10,2013-01-07 18:55:00,
2013-01-07 11:10:00,52.6,49.0,30.24,NW,317,9.0,-999.0,87,-99.99,,,0.00,weatherlink.com 1.10,2013-01-07 19:10:00,
2013-01-07 11:25:00,53.3,49.0,30.23,WNW,289,10.0,-999.0,84,-99.99,,,0.00,weatherlink.com 1.10,2013-01-07 19:25:00,
2013-01-07 11:40:00,54.1,49.0,30.23,WSW,254,11.0,-999.0,83,-99.99,,,0.00,weatherlink.com 1.10,2013-01-07 19:40:00,
2013-01-07 11:55:00,54.0,49.0,30.22,West,265,12.0,-999.0,82,-99.99,,,0.00,weatherlink.com 1.10,2013-01-07 19:55:00,
2013-01-07 12:10:00,55.0,50.0,30.21,WSW,254,12.0,-999.0,83,-99.99,,,0.00,weatherlink.com 1.10,2013-01-07 20:10:00,
2013-01-07 12:25:00,55.0,50.0,30.20,WNW,299,6.0,-999.0,83,-99.99,,,0.00,weatherlink.com 1.10,2013-01-07 20:25:00,
2013-01-07 12:40:00,54.0,50.0,30.20,WNW,282,14.0,-999.0,86,-99.99,,,0.00,weatherlink.com 1.10,2013-01-07 20:40:00,
2013-01-07 12:55:00,53.9,50.0,30.20,NNW,333,2.0,-999.0,85,-99.99,,,0.00,weatherlink.com 1.10,2013-01-07 20:55:00,
2013-01-07 13:10:00,53.6,50.0,30.20,WNW,293,5.0,-999.0,87,-99.99,,,0.00,weatherlink.com 1.10,2013-01-07 21:10:00,
2013-01-07 13:25:00,54.3,50.0,30.20,West,280,14.0,-999.0,86,-99.99,,,0.00,weatherlink.com 1.10,2013-01-07 21:25:00,
2013-01-07 13:40:00,55.4,51.0,30.18,West,261,14.0,-999.0,84,-99.99,,,0.00,weatherlink.com 1.10,2013-01-07 21:40:00,
2013-01-07 13:55:00,55.2,51.0,30.17,NNW,333,12.0,-999.0,85,-99.99,,,0.00,weatherlink.com 1.10,2013-01-07 21:55:00,
2013-01-07 14:10:00,56.1,52.0,30.17,West,259,14.0,-999.0,85,-99.99,,,0.00,weatherlink.com 1.10,2013-01-07 22:10:00,
2013-01-07 14:25:00,56.3,52.0,30.17,NNE,14,8.0,-999.0,84,-99.99,,,0.00,weatherlink.com 1.10,2013-01-07 22:25:00,
2013-01-07 14:40:00,54.8,51.0,30.17,WSW,246,16.0,-999.0,86,-99.99,,,0.00,weatherlink.com 1.10,2013-01-07 22:40:00,
2013-01-07 14:55:00,54.9,51.0,30.17,WNW,288,11.0,-999.0,87,-99.99,,,0.00,weatherlink.com 1.10,2013-01-07 22:55:00,
2013-01-07 15:10:00,53.5,50.0,30.17,WSW,241,16.0,-999.0,89,-99.99,,,0.00,weatherlink.com 1.10,2013-01-07 23:10:00,
2013-01-07 15:25:00,53.2,51.0,30.17,West,259,10.0,-999.0,91,-99.99,,,0.00,weatherlink.com 1.10,2013-01-07 23:25:00,
2013-01-07 15:41:00,53.2,51.0,30.18,WSW,248,10.0,-999.0,91,-99.99,,,0.00,weatherlink.com 1.10,2013-01-07 23:41:00,
2013-01-07 15:56:00,53.6,51.0,30.18,NNW,328,7.0,-999.0,90,-99.99,,,0.00,weatherlink.com 1.10,2013-01-07 23:56:00,
2013-01-07 16:41:00,52.2,50.0,30.17,WSW,253,12.0,-999.0,91,-99.99,,,0.00,weatherlink.com 1.10,2013-01-08 00:41:00,
2013-01-07 16:56:00,51.8,50.0,30.17,West,269,5.0,-999.0,92,-99.99,,,0.00,weatherlink.com 1.10,2013-01-08 00:56:00,
2013-01-07 17:11:00,51.8,50.0,30.17,NW,308,8.0,-999.0,92,-99.99,,,0.00,weatherlink.com 1.10,2013-01-08 01:11:00,
2013-01-07 17:26:00,51.8,50.0,30.17,West,276,7.0,-999.0,92,-99.99,,,0.00,weatherlink.com 1.10,2013-01-08 01:26:00,
2013-01-07 17:40:00,51.8,50.0,30.18,WSW,242,7.0,-999.0,92,-99.99,,,0.00,weatherlink.com 1.10,2013-01-08 01:40:00,
2013-01-07 17:55:00,51.8,50.0,30.17,West,278,9.0,-999.0,92,-99.99,,,0.00,weatherlink.com 1.10,2013-01-08 01:55:00,
2013-01-07 18:26:00,51.6,49.0,30.18,WSW,245,5.0,-999.0,92,-99.99,,,0.00,weatherlink.com 1.10,2013-01-08 02:26:00,
2013-01-07 18:41:00,51.3,49.0,30.18,West,279,5.0,-999.0,92,-99.99,,,0.00,weatherlink.com 1.10,2013-01-08 02:41:00,
2013-01-07 18:56:00,51.2,49.0,30.18,WSW,250,8.0,-999.0,92,-99.99,,,0.00,weatherlink.com 1.10,2013-01-08 02:56:00,
2013-01-07 19:11:00,51.1,49.0,30.18,West,259,9.0,-999.0,93,-99.99,,,0.00,weatherlink.com 1.10,2013-01-08 03:11:00,
2013-01-07 19:25:00,50.7,49.0,30.17,NW,308,2.0,-999.0,92,-99.99,,,0.00,weatherlink.com 1.10,2013-01-08 03:25:00,
2013-01-07 19:40:00,50.0,48.0,30.18,NW,311,2.0,-999.0,92,-99.99,,,0.00,weatherlink.com 1.10,2013-01-08 03:40:00,
2013-01-07 19:55:00,49.8,48.0,30.18,WNW,290,3.0,-999.0,93,-99.99,,,0.00,weatherlink.com 1.10,2013-01-08 03:55:00,
2013-01-07 20:10:00,50.1,49.0,30.18,WSW,257,8.0,-999.0,94,-99.99,,,0.00,weatherlink.com 1.10,2013-01-08 04:10:00,
2013-01-07 20:25:00,50.8,49.0,30.18,WNW,291,8.0,-999.0,94,-99.99,,,0.00,weatherlink.com 1.10,2013-01-08 04:25:00,
2013-01-07 20:40:00,50.9,49.0,30.18,NW,325,8.0,-999.0,94,-99.99,,,0.00,weatherlink.com 1.10,2013-01-08 04:40:00,
2013-01-07 20:55:00,51.0,49.0,30.18,West,273,3.0,-999.0,94,-99.99,,,0.00,weatherlink.com 1.10,2013-01-08 04:55:00,
2013-01-07 21:11:00,50.6,49.0,30.18,WNW,301,6.0,-999.0,93,-99.99,,,0.00,weatherlink.com 1.10,2013-01-08 05:11:00,
2013-01-07 21:25:00,50.3,49.0,30.18,NW,313,3.0,-999.0,94,-99.99,,,0.00,weatherlink.com 1.10,2013-01-08 05:25:00,
2013-01-07 21:40:00,50.3,49.0,30.18,WNW,294,3.0,-999.0,94,-99.99,,,0.00,weatherlink.com 1.10,2013-01-08 05:40:00,
2013-01-07 21:55:00,50.6,49.0,30.18,West,274,1.0,-999.0,94,-99.99,,,0.00,weatherlink.com 1.10,2013-01-08 05:55:00,
2013-01-07 22:10:00,50.4,49.0,30.18,NW,306,2.0,-999.0,94,-99.99,,,0.00,weatherlink.com 1.10,2013-01-08 06:10:00,
2013-01-07 22:25:00,50.2,49.0,30.18,WNW,293,2.0,-999.0,94,-99.99,,,0.00,weatherlink.com 1.10,2013-01-08 06:25:00,
2013-01-07 22:40:00,50.7,49.0,30.18,WNW,288,3.0,-999.0,94,-99.99,,,0.00,weatherlink.com 1.10,2013-01-08 06:40:00,
2013-01-07 22:55:00,50.9,49.0,30.18,West,276,3.0,-999.0,94,-99.99,,,0.00,weatherlink.com 1.10,2013-01-08 06:55:00,
2013-01-07 23:10:00,50.8,49.0,30.18,WNW,300,9.0,-999.0,94,-99.99,,,0.00,weatherlink.com 1.10,2013-01-08 07:10:00,
2013-01-07 23:25:00,50.8,49.0,30.18,West,265,10.0,-999.0,94,-99.99,,,0.00,weatherlink.com 1.10,2013-01-08 07:25:00,
2013-01-07 23:40:00,50.7,49.0,30.18,WNW,298,7.0,-999.0,94,-99.99,,,0.00,weatherlink.com 1.10,2013-01-08 07:40:00,
2013-01-07 23:55:00,50.5,49.0,30.18,NW,312,5.0,-999.0,94,-99.99,,,0.00,weatherlink.com 1.10,2013-01-08 07:55:00,